Temperature
22 23 23 22 22 22 22 21 21 21 21 21 21 21 20 20 19 19 18 18 17 17 16 16 16 16 16 15 15 15 15 14 14 14 14 14 14 14 14 14 14 14 14 14
21 22 22 22 22 22 22 21 21 21 21 22 21 21 20 19 19 18 18 17 17 16 16 16 16 16 15 15 15 15 14 14 14 14 14 14 14 14 14 14 14 14 14 14
20 21 21 20 21 21 21 21 21 20 20 21 20 20 19 19 18 18 17 17 16 16 16 16 15 15 15 15 15 14 14 14 14 13 14 13 13 13 13 13 13 13 14 14
19 20 19 20 21 21 20 20 21 20 20 20 20 19 19 18 18 17 17 16 16 16 16 15 15 15 15 14 14 14 14 14 13 13 13 13 13 13 13 13 13 13 13 13
19 18 19 20 20 20 19 19 20 20 19 19 19 19 18 18 17 17 16 16 16 15 15 15 15 15 14 14 14 14 14 13 13 13 13 13 13 13 13 13 13 13 13 13
18 18 18 19 19 20 19 18 19 19 18 18 18 17 17 17 17 16 16 15 15 15 15 15 15 14 14 14 14 14 13 13 13 13 12 12 12 12 12 12 12 12 12 12
17 17 18 18 19 19 17 17 18 18 17 17 17 17 16 16 16 15 15 15 15 14 14 14 14 14 14 14 14 13 13 13 13 12 12 12 12 12 12 12 12 12 12 12
17 17 17 17 18 18 17 17 17 17 16 16 16 16 15 15 15 14 14 14 14 14 14 14 14 14 13 13 13 13 13 12 12 12 12 12 12 12 12 12 12 11 12 12
17 16 17 17 17 16 16 16 16 15 15 15 15 15 14 14 14 14 14 14 14 14 13 13 13 13 13 13 13 13 12 12 12 12 12 12 11 11 11 11 11 11 11 11
17 17 17 16 16 15 15 15 15 15 15 14 14 14 14 14 13 13 13 13 13 13 13 13 13 13 13 13 12 12 12 12 12 11 11 11 11 11 11 11 11 11 11 11
16 16 16 16 15 15 15 14 14 14 14 14 14 13 13 13 13 13 13 13 12 12 12 12 12 12 12 12 12 12 12 11 11 11 11 11 11 11 11 11 11 11 11 11
15 15 15 15 14 14 14 14 14 13 13 13 13 13 13 12 12 12 12 12 12 12 12 12 12 11 11 11 11 11 11 11 11 11 11 11 11 11 10 10 10 10 10 10
15 14 14 14 14 13 13 13 13 13 13 12 12 12 12 12 12 12 12 11 11 11 11 11 11 11 11 11 11 11 11 10 10 10 10 10 10 10 10 10 10 10 10 10
13 13 13 13 13 13 13 12 12 12 12 12 12 12 11 11 11 11 11 11 11 11 11 10 10 10 10 10 10 10 10 10 10 10 10 10 10 10 10 10 10 10 9 9
13 13 13 12 12 12 12 12 12 11 11 11 11 11 11 11 11 10 10 10 10 10 10 10 10 10 10 10 10 10 10 10 9 9 9 9 9 9 9 9 9 9 9 9
12 12 12 12 12 11 11 11 11 11 11 11 10 10 10 10 10 10 10 10 10 10 9 9 9 10 10 10 9 9 9 9 9 9 9 9 9 9 9 9 9 9 9 9
11 11 11 11 11 11 11 10 10 10 10 10 10 10 9 9 9 9 9 9 9 9 9 9 9 9 9 9 9 9 9 9 9 9 8 8 8 8 8 8 8 8 8 8
11 11 11 10 10 10 10 10 10 10 9 9 9 9 9 9 9 8 8 8 8 8 9 9 9 9 8 8 8 8 8 8 8 8 8 8 8 8 8 8 8 8 8 8
10 10 10 10 10 9 9 9 9 9 9 9 9 8 8 8 8 8 8 8 8 8 8 8 8 8 8 8 8 8 8 8 7 7 7 7 7 7 7 7 7 7 7 7
9 9 9 9 9 9 9 9 8 8 8 8 8 8 8 8 7 7 7 7 7 7 8 8 8 8 7 7 7 7 7 7 7 7 7 7 7 7 6 6 7 7 7 7
8 8 8 8 8 8 8 8 8 8 7 7 7 7 7 7 7 7 7 7 7 7 7 7 7 7 7 7 7 7 6 6 6 6 6 6 6 6 6 6 6 6 6 6
8 7 7 7 7 7 7 7 7 7 7 7 7 7 6 6 6 6 6 6 6 6 7 7 7 7 6 6 6 6 6 5 5 5 5 5 5 5 5 5 5 5 5 6
7 7 7 7 7 7 7 7 7 6 6 6 6 6 6 6 6 6 6 6 6 6 6 6 6 6 6 6 5 5 5 5 5 5 5 5 5 5 5 5 5 5 5 5
7 6 6 6 6 6 6 6 6 6 6 6 6 6 6 6 6 5 5 5 5 5 5 5 5 5 5 5 5 5 5 5 4 4 4 4 5 5 5 5 5 5 5 5
6 6 6 6 6 6 5 5 5 5 5 5 5 5 5 5 5 5 5 5 5 5 5 5 5 5 5 4 4 4 4 4 4 4 4 4 4 4 4 4 4 4 4 4
6 5 5 5 5 5 5 5 5 5 5 5 5 5 5 5 5 5 4 4 4 4 4 4 4 4 4 4 4 3 3 3 3 3 3 3 4 4 4 4 4 4 4 4
5 5 5 5 5 4 4 4 4 4 4 4 4 4 4 4 4 4 4 3 3 3 3 3 3 3 3 3 3 3 3 3 3 3 3 3 3 3 3 3 3 3 3 3
Wind_Speed
14 13 11 12 12 10 11 10 10 8 6 4 1 2 2 2 2 3 4 3 3 3 2 2 3 3 3 3 4 5 5 4 3 2 2 3 2 2 1 1 1 1 2 3
15 14 12 13 12 12 11 11 11 8 7 3 1 2 2 1 1 2 2 3 2 2 2 2 2 3 3 3 3 4 5 4 3 3 2 3 3 2 2 2 1 1 2 2
12 13 12 11 8 8 8 8 9 8 5 1 2 2 1 0 1 1 2 2 2 1 1 2 2 2 3 3 3 4 4 4 4 4 3 3 3 3 2 2 2 2 2 1
9 11 11 4 2 3 4 5 5 4 2 2 1 1 1 1 0 1 2 1 1 0 0 1 1 2 2 3 3 4 4 4 4 4 3 2 3 3 3 2 2 2 2 2
8 10 9 4 1 2 4 5 4 3 2 3 3 1 1 2 3 3 3 2 1 1 1 1 1 1 2 2 3 3 4 4 4 4 4 3 4 4 3 2 2 2 2 3
8 9 8 2 2 2 4 4 3 4 3 3 3 2 1 4 4 4 3 2 1 2 1 1 1 1 2 3 3 3 4 4 3 4 4 4 4 4 3 3 3 3 3 3
10 10 6 2 3 2 3 2 5 5 4 4 4 3 3 4 5 4 3 1 1 1 1 2 2 1 3 3 3 3 3 3 3 3 3 4 3 3 3 4 3 3 3 3
7 8 4 3 3 2 3 5 5 5 5 5 5 4 4 4 4 3 3 2 1 1 2 2 2 3 3 3 3 2 3 3 3 3 3 3 3 3 3 4 4 3 3 3
3 2 2 3 3 4 5 5 5 6 6 5 5 4 4 4 3 3 3 2 2 1 2 2 2 2 3 2 2 3 3 4 3 3 2 2 3 3 2 3 3 3 3 3
6 3 3 3 4 5 5 5 6 6 5 4 4 4 4 4 4 3 3 3 2 2 2 2 2 2 2 2 2 3 4 4 4 4 3 3 3 3 3 3 3 3 3 3
9 7 4 3 3 4 5 6 7 6 5 4 4 4 4 4 4 4 3 2 2 1 2 3 3 2 2 1 2 2 3 3 4 4 4 3 3 3 4 4 4 4 4 3
8 6 6 6 5 5 5 6 7 6 6 5 4 4 4 4 4 3 3 3 2 2 2 2 3 2 2 1 2 2 3 3 3 3 3 3 3 2 3 4 5 5 5 4
8 6 7 7 6 6 6 7 6 6 6 6 5 4 4 4 3 2 3 3 3 2 2 2 2 3 2 1 2 2 3 3 2 3 3 3 4 4 3 1 2 3 4 5
6 6 7 7 7 6 7 6 6 6 5 5 4 4 4 4 3 3 3 3 3 3 2 2 2 2 2 2 1 2 2 3 2 3 3 3 4 4 4 3 2 2 2 4
8 7 7 7 6 7 6 5 5 5 5 5 4 4 4 3 3 3 3 3 3 3 3 2 2 2 1 1 1 2 2 2 2 2 2 3 3 3 3 4 3 3 2 2
8 7 6 6 6 6 5 5 5 5 5 4 4 4 3 2 3 3 3 2 3 3 3 3 3 2 1 1 1 2 1 2 2 2 2 2 3 3 3 3 3 3 3 3
7 6 5 5 5 5 5 5 4 5 4 4 4 4 3 2 2 2 3 3 3 3 3 2 2 2 2 1 1 1 1 1 2 2 2 3 3 3 3 3 3 3 3 3
4 4 4 4 4 4 4 4 4 4 4 4 4 3 3 3 3 3 3 3 4 4 3 3 2 2 2 1 1 1 1 1 1 2 2 2 3 3 3 3 4 4 3 3
3 3 3 4 4 4 4 4 4 3 4 4 3 3 3 3 3 3 3 3 3 4 4 3 3 2 2 1 2 1 1 1 2 2 2 2 2 2 2 2 3 3 2 2
3 4 4 4 4 4 4 4 4 4 4 4 3 3 3 3 3 3 4 3 2 2 3 3 3 2 2 1 2 1 1 2 2 2 2 2 2 2 2 3 2 2 2 2
3 3 4 4 4 4 4 5 4 4 3 3 3 3 3 3 3 3 3 3 3 3 3 3 2 2 2 2 2 2 2 2 2 2 2 2 2 2 3 3 2 2 2 2
3 3 4 4 4 5 4 4 4 3 3 3 3 3 3 3 3 4 4 3 2 3 3 2 1 2 3 3 1 2 2 2 2 2 2 2 3 3 3 3 3 3 3 2
3 3 4 4 4 5 5 4 4 3 4 3 3 3 3 3 3 3 4 3 2 3 3 2 2 3 3 2 2 2 2 2 2 2 2 2 2 3 3 3 3 3 3 3
3 4 4 5 4 4 4 4 4 3 3 3 3 3 3 2 2 2 2 3 4 4 2 2 3 3 3 1 1 2 2 2 2 2 2 2 2 2 2 2 2 2 3 3
4 4 4 4 4 3 4 4 4 3 3 3 3 3 2 1 2 2 2 2 3 2 2 3 3 4 3 2 2 2 2 3 3 2 2 2 2 2 2 2 2 2 3 3
4 4 3 4 3 3 3 3 3 3 3 3 3 2 2 2 2 2 2 2 2 3 3 2 2 2 2 2 2 3 3 2 2 2 2 2 3 3 3 3 3 3 3 3
4 3 3 2 2 2 3 3 3 3 3 3 3 3 3 3 2 2 2 2 2 2 2 2 2 2 2 2 2 2 2 2 2 2 2 2 3 3 3 3 3 3 3 3
Wind_Direction
284 286 282 279 278 273 269 272 274 282 289 287 3 96 101 111 102 97 104 109 125 131 130 139 158 161 147 156 159 155 154 160 178 178 148 158 150 147 146 134 134 111 99 100
284 281 275 274 273 267 266 272 274 274 278 301 53 63 91 81 73 106 123 128 125 143 152 168 181 170 158 153 165 159 161 166 171 162 146 159 157 156 157 142 118 91 94 98
282 288 284 268 272 268 261 267 273 276 284 341 31 5 24 61 212 171 130 127 133 177 198 188 199 188 167 165 169 163 164 158 157 156 148 164 168 162 164 161 146 145 139 135
278 282 270 265 349 333 296 285 293 301 320 330 0 357 49 55 13 53 58 86 85 299 275 280 218 178 168 168 169 157 158 161 163 162 160 169 171 167 174 178 170 169 163 163
272 274 274 253 313 309 291 291 318 315 330 351 360 335 26 60 44 46 29 46 42 314 307 283 278 187 158 168 163 159 160 167 171 170 169 174 177 176 183 187 194 185 173 172
266 271 273 307 25 343 289 265 22 17 7 357 325 298 26 43 36 31 22 34 2 320 307 292 284 197 181 187 181 179 171 174 182 177 174 181 186 185 183 174 195 199 188 183
257 263 270 5 357 314 268 9 29 15 12 352 346 7 12 15 16 9 356 352 330 313 304 288 288 232 205 206 196 178 164 172 185 189 188 185 183 182 181 181 192 201 193 198
252 255 263 36 349 349 11 11 1 359 359 356 0 12 7 4 355 342 332 322 296 282 281 278 262 238 217 204 185 170 171 181 192 194 193 194 183 187 186 185 195 207 208 210
283 283 0 32 21 1 354 346 353 350 351 346 338 342 338 337 331 323 320 314 310 291 285 277 268 246 237 187 164 181 186 195 195 196 187 185 185 184 185 186 199 209 208 208
287 275 310 338 358 2 351 342 337 328 328 330 326 333 337 335 328 322 313 305 306 305 291 281 274 269 252 196 185 199 199 196 196 195 196 194 190 188 185 194 206 211 210 213
280 286 296 293 322 334 337 333 324 317 315 321 322 320 322 320 319 316 312 311 298 270 286 293 292 292 269 207 185 205 205 200 202 202 195 194 194 199 199 203 202 205 210 203
274 293 296 300 308 317 317 316 318 322 324 327 322 319 324 322 315 316 322 323 321 321 312 306 307 303 286 237 213 207 213 214 208 203 198 194 191 203 218 213 209 208 208 200
289 298 300 301 307 317 312 309 312 313 314 314 313 316 314 306 303 319 331 336 327 318 313 310 311 307 308 274 229 223 227 219 212 210 205 202 198 192 202 233 201 204 214 210
300 298 290 291 297 300 298 303 306 307 310 308 311 315 310 316 326 331 326 326 325 322 316 314 309 300 303 293 238 234 232 226 222 215 206 208 210 207 202 199 205 230 234 217
277 277 279 287 288 290 294 295 297 303 308 310 313 310 313 319 321 318 320 327 330 328 323 317 309 297 300 286 245 240 240 213 209 216 214 214 214 207 204 207 209 211 209 221
280 277 276 279 282 288 291 289 289 293 296 300 304 303 305 308 310 321 335 346 330 318 311 304 309 324 345 327 283 257 243 225 212 215 218 224 220 212 209 209 214 213 212 210
272 272 275 279 282 287 289 290 289 293 299 304 304 307 311 308 314 326 329 325 309 306 309 312 323 344 339 319 299 269 252 226 218 226 226 230 228 216 207 205 210 217 224 212
281 290 295 293 294 295 293 293 293 297 307 310 312 315 309 304 306 310 312 314 316 323 324 323 330 344 321 312 302 281 249 221 222 234 237 232 233 229 213 210 215 220 225 214
325 314 314 315 313 311 309 305 310 315 312 308 305 300 297 299 301 305 306 307 310 311 312 324 328 327 310 306 303 288 253 241 246 250 249 242 245 247 244 236 230 227 218 206
357 358 343 329 322 316 310 307 308 312 311 307 302 298 296 297 298 296 299 302 303 307 320 331 327 309 293 282 292 280 264 251 246 248 250 245 240 246 247 252 251 234 222 215
359 353 346 337 327 318 309 308 308 304 305 304 298 292 293 300 302 297 296 297 308 323 320 320 316 305 297 298 277 280 265 252 249 249 246 241 243 248 249 249 251 253 239 229
343 334 328 326 322 320 321 319 316 312 309 303 300 299 298 297 298 296 290 289 305 310 311 309 312 328 331 327 283 273 267 261 253 247 241 238 236 237 241 240 239 245 245 237
314 316 314 314 316 318 319 321 321 314 308 304 300 295 287 284 281 284 294 305 315 317 312 304 324 329 321 319 295 280 273 271 264 259 262 260 255 248 242 241 242 243 243 244
302 306 310 313 314 312 316 326 327 321 314 308 301 293 282 283 292 295 285 301 312 309 308 307 309 306 306 300 285 281 280 278 271 263 262 261 266 269 260 249 247 245 243 251
300 301 304 310 312 313 316 320 319 320 317 312 308 309 306 295 289 298 299 300 310 312 304 301 300 301 300 292 291 292 288 278 279 285 281 279 279 277 276 271 265 254 245 244
300 300 299 298 305 308 306 309 312 315 315 316 318 326 330 331 328 323 324 324 326 322 318 315 303 297 296 301 300 291 283 283 282 277 273 273 274 274 274 273 273 271 263 253
293 293 291 291 298 303 307 306 305 310 315 314 316 325 325 323 322 319 318 319 317 313 309 309 299 291 300 302 300 304 302 295 290 284 276 273 271 269 267 267 271 276 278 271
Height
1490 1487 1487 1488 1487 1487 1490 1491 1495 1492 1490 1488 1487 1489 1491 1492 1493 1495 1496 1498 1500 1501 1502 1504 1505 1506 1507 1508 1510 1511 1512 1513 1515 1516 1517 1519 1520 1521 1523 1524 1525 1526 1527 1527
1493 1486 1484 1485 1485 1485 1486 1487 1487 1487 1489 1485 1487 1489 1491 1493 1494 1495 1496 1497 1499 1500 1501 1502 1503 1504 1505 1506 1507 1508 1510 1511 1512 1514 1515 1516 1517 1519 1520 1522 1522 1523 1524 1525
1497 1487 1485 1489 1483 1482 1484 1483 1485 1488 1487 1485 1487 1489 1491 1492 1494 1494 1495 1496 1498 1499 1500 1501 1502 1502 1503 1504 1505 1506 1507 1509 1510 1511 1512 1514 1515 1516 1518 1519 1520 1521 1522 1523
1497 1495 1501 1488 1479 1479 1482 1483 1482 1484 1484 1485 1487 1489 1490 1491 1492 1493 1494 1495 1496 1498 1499 1500 1500 1501 1502 1502 1503 1504 1505 1506 1508 1509 1510 1511 1512 1514 1515 1516 1518 1519 1520 1521
1498 1498 1491 1484 1482 1482 1485 1485 1482 1483 1484 1486 1487 1488 1489 1490 1491 1492 1492 1493 1494 1496 1497 1498 1498 1499 1500 1500 1501 1502 1503 1504 1505 1506 1507 1508 1510 1511 1513 1514 1515 1516 1517 1518
1497 1500 1498 1487 1482 1482 1484 1488 1484 1484 1485 1486 1487 1490 1490 1490 1491 1491 1491 1492 1492 1493 1494 1495 1496 1496 1497 1498 1499 1499 1500 1502 1503 1504 1505 1506 1507 1508 1510 1511 1512 1514 1515 1516
1497 1497 1490 1485 1483 1483 1492 1491 1487 1486 1487 1488 1488 1489 1490 1489 1489 1490 1490 1490 1490 1491 1491 1492 1493 1493 1494 1495 1496 1497 1498 1499 1500 1501 1502 1503 1504 1505 1507 1508 1509 1511 1512 1513
1492 1495 1494 1486 1485 1487 1490 1488 1488 1488 1488 1488 1488 1488 1488 1488 1488 1488 1488 1489 1488 1488 1488 1489 1490 1490 1491 1492 1493 1494 1495 1496 1497 1498 1499 1500 1501 1502 1503 1504 1506 1507 1508 1509
1490 1492 1488 1487 1488 1488 1488 1488 1488 1489 1488 1488 1488 1488 1488 1487 1487 1487 1487 1487 1486 1486 1486 1486 1487 1487 1488 1489 1489 1491 1492 1493 1494 1495 1496 1496 1497 1498 1500 1501 1502 1503 1504 1505
1487 1486 1486 1487 1487 1488 1488 1488 1488 1488 1488 1488 1487 1487 1487 1486 1486 1485 1485 1484 1484 1484 1483 1483 1483 1483 1484 1485 1486 1487 1488 1489 1491 1492 1492 1493 1494 1495 1496 1497 1498 1499 1500 1500
1487 1486 1486 1486 1487 1487 1487 1487 1487 1487 1486 1486 1486 1485 1485 1484 1483 1483 1482 1482 1481 1481 1481 1480 1480 1480 1481 1482 1483 1483 1484 1486 1487 1488 1489 1490 1491 1492 1492 1493 1494 1495 1496 1497
1487 1486 1486 1486 1485 1485 1485 1485 1485 1485 1484 1484 1484 1483 1482 1481 1481 1481 1480 1479 1479 1478 1478 1477 1477 1477 1478 1478 1479 1480 1481 1482 1483 1484 1485 1486 1487 1487 1489 1490 1491 1491 1492 1492
1485 1484 1484 1484 1484 1484 1484 1483 1483 1483 1482 1481 1481 1480 1480 1479 1479 1478 1477 1477 1476 1475 1474 1474 1474 1474 1474 1475 1476 1477 1477 1478 1479 1480 1481 1482 1483 1483 1484 1486 1486 1487 1488 1488
1483 1483 1482 1482 1482 1482 1482 1481 1481 1480 1480 1479 1478 1478 1477 1476 1475 1475 1474 1474 1473 1472 1472 1471 1471 1471 1471 1472 1473 1473 1474 1475 1475 1476 1477 1477 1478 1479 1480 1480 1481 1482 1483 1484
1481 1480 1480 1479 1479 1479 1479 1478 1478 1477 1477 1476 1475 1475 1474 1473 1473 1472 1472 1471 1471 1470 1469 1468 1467 1467 1468 1469 1469 1470 1470 1471 1472 1472 1473 1474 1474 1475 1475 1476 1476 1477 1478 1479
1477 1477 1476 1476 1476 1476 1476 1475 1475 1475 1474 1474 1473 1472 1472 1471 1470 1469 1469 1468 1468 1467 1466 1466 1465 1464 1465 1465 1466 1466 1467 1467 1468 1468 1469 1470 1470 1471 1471 1472 1473 1473 1474 1474
1474 1473 1473 1473 1473 1473 1473 1473 1472 1472 1471 1471 1470 1470 1469 1468 1467 1466 1466 1465 1465 1465 1464 1463 1462 1461 1462 1462 1462 1462 1463 1464 1464 1465 1465 1466 1466 1466 1467 1468 1468 1469 1469 1470
1470 1470 1470 1470 1470 1470 1470 1469 1469 1468 1468 1468 1467 1466 1466 1465 1464 1464 1463 1462 1462 1461 1460 1460 1459 1458 1458 1458 1459 1459 1459 1459 1460 1460 1461 1461 1462 1462 1463 1463 1464 1464 1465 1466
1467 1467 1467 1467 1467 1467 1467 1466 1466 1465 1465 1464 1464 1463 1462 1462 1461 1461 1460 1459 1458 1457 1457 1456 1456 1455 1455 1455 1455 1455 1455 1455 1456 1456 1457 1457 1458 1458 1459 1459 1459 1460 1460 1461
1465 1465 1465 1465 1465 1464 1464 1463 1463 1462 1461 1461 1460 1459 1459 1458 1458 1458 1457 1455 1454 1454 1453 1453 1452 1452 1451 1451 1451 1451 1451 1451 1452 1452 1452 1453 1453 1454 1454 1454 1455 1455 1456 1456
1464 1464 1463 1463 1462 1462 1461 1460 1460 1459 1458 1457 1457 1456 1455 1455 1455 1454 1453 1452 1451 1451 1450 1449 1448 1448 1448 1448 1448 1447 1447 1447 1447 1448 1448 1448 1449 1449 1449 1450 1450 1450 1451 1451
1463 1462 1462 1461 1460 1459 1458 1458 1457 1456 1455 1454 1454 1453 1452 1451 1451 1450 1449 1449 1448 1447 1446 1445 1445 1444 1444 1444 1443 1443 1443 1443 1444 1444 1444 1444 1444 1445 1445 1445 1445 1446 1446 1446
1461 1461 1460 1459 1458 1457 1456 1455 1454 1453 1452 1451 1450 1449 1448 1448 1447 1447 1445 1445 1444 1443 1442 1441 1441 1441 1440 1440 1440 1440 1439 1440 1440 1440 1440 1440 1441 1441 1441 1441 1441 1441 1442 1442
1459 1458 1458 1457 1456 1455 1453 1452 1451 1450 1449 1448 1447 1446 1445 1444 1443 1443 1442 1441 1440 1439 1438 1438 1437 1437 1437 1436 1436 1436 1435 1436 1436 1436 1436 1436 1437 1437 1437 1436 1437 1437 1437 1437
1456 1456 1455 1454 1453 1452 1451 1450 1448 1447 1446 1445 1444 1443 1442 1441 1440 1439 1438 1437 1436 1435 1434 1434 1433 1433 1433 1432 1432 1431 1431 1431 1432 1432 1432 1432 1432 1432 1432 1432 1432 1432 1432 1432
1453 1453 1452 1451 1451 1450 1448 1447 1446 1445 1443 1442 1441 1440 1439 1438 1437 1436 1435 1434 1432 1431 1431 1430 1429 1429 1428 1428 1427 1427 1427 1427 1427 1427 1427 1427 1427 1427 1427 1427 1427 1427 1427 1427
1450 1449 1449 1448 1447 1447 1446 1445 1444 1442 1441 1440 1438 1437 1436 1435 1434 1433 1432 1430 1429 1428 1427 1427 1426 1425 1425 1424 1424 1423 1423 1423 1423 1423 1423 1423 1423 1423 1423 1422 1422 1422 1422 1422